Weather History for Joplin, MO

Change the Weather History Date:

Wednesday, July 24, 2013

  Actual Average Record
Temperature  
Mean Temperature 76 °F 81 °F  
Max Temperature 87 °F 91 °F 103 °F (2011)
Min Temperature 65 °F 70 °F 57 °F (2000)
Degree Days  
Heating Degree Days 0 0  
Month to date heating degree days 0 0  
Since 1 June heating degree days 12 5  
Since 1 July heating degree days 0 0  
Cooling Degree Days 11 16  
Month to date cooling degree days 347 363  
Year to date cooling degree days 814 861  
Since 1 June cooling degree days 670 681  
Growing Degree Days 28 (Base 50)    
Moisture  
Dew Point 67 °F    
Average Humidity 74    
Maximum Humidity 100    
Minimum Humidity 48    
Precipitation  
Precipitation 0.03 in 0.11 in 0.89 in (2010)
Month to date precipitation 0.22 3.09  
Year to date precipitation 28.00 26.90  
Snow  
Snow 0.00 in - - ()
Month to date snowfall 0.0  
Since 1 June snowfall 0.0  
Snow Depth 0.00 in    
Sea Level Pressure  
Sea Level Pressure 29.95 in    
Wind  
Wind Speed 6 mph (NNW)    
Max Wind Speed 16 mph    
Max Gust Speed 22 mph    
Visibility 10 miles    
Events Rain , Thunderstorm    
T = Trace of Precipitation, MM = Missing Value Source: NWS Daily Summary

Daily Weather History Graph

Daily Weather History Graph

Search for Another Location

Airport:

Trip Planner

Search our weather history database for the weather conditions in past years. The results will help you decide how hot, cold, wet, or windy it might be!

Date:

Astronomy

Jul. 24, 2013 Rise Set
Actual Time 6:16 AM CDT 8:31 PM CDT
Civil Twilight 5:47 AM CDT 9:01 PM CDT
Nautical Twilight 5:11 AM CDT 9:37 PM CDT
Astronomical Twilight 4:31 AM CDT 10:16 PM CDT
Moon 9:43 PM CDT (7/24) 8:33 AM CDT (7/24)
Length of Visible Light 15h 14m
Length of Day
14h 15m
Waning Gibbous, 94% of the Moon is Illuminated
Jul 24
Waning Gibbous
Jul 29
Last Quarter
Aug 6
New
Aug 14
First Quarter
Aug 20
Full

Hourly Weather History & Observations

Time (CDT) Temp. Heat Index Dew Point Humidity Pressure Visibility Wind Dir Wind Speed Gust Speed Precip Events Conditions
12:10 AM 73.4 °F - 68.0 °F 83% 29.87 in 10.0 mi ESE 6.9 mph - 0.00 in Rain , Thunderstorm Light Rain
12:22 AM 73.4 °F - 68.0 °F 83% 29.92 in 10.0 mi South 6.9 mph - 0.00 in Rain , Thunderstorm Light Rain
12:53 AM 73.0 °F - 70.0 °F 90% 29.87 in 6.0 mi South 10.4 mph - 0.05 in Rain , Thunderstorm Thunderstorms and Rain
1:12 AM 71.6 °F - 69.8 °F 94% 29.89 in 10.0 mi South 13.8 mph - 0.04 in Rain Light Rain
1:53 AM 72.0 °F - 70.0 °F 93% 29.87 in 10.0 mi South 6.9 mph 16.1 mph 0.05 in Rain Light Rain
2:53 AM 72.0 °F - 70.0 °F 93% 29.89 in 10.0 mi WNW 9.2 mph - 0.01 in   Overcast
3:07 AM 71.6 °F - 69.8 °F 94% 29.94 in 10.0 mi WNW 9.2 mph - 0.00 in Rain Light Rain
3:19 AM 71.6 °F - 69.8 °F 94% 29.94 in 10.0 mi WNW 6.9 mph - 0.00 in   Scattered Clouds
3:51 AM 71.6 °F - 69.8 °F 94% 29.94 in 10.0 mi West 6.9 mph - 0.00 in   Mostly Cloudy
3:53 AM 71.1 °F - 70.0 °F 96% 29.90 in 10.0 mi West 6.9 mph - 0.00 in   Mostly Cloudy
4:27 AM 71.6 °F - 69.8 °F 94% 29.94 in 10.0 mi West 4.6 mph - N/A   Partly Cloudy
4:53 AM 70.0 °F - 69.1 °F 97% 29.89 in 10.0 mi Calm Calm - N/A   Clear
5:53 AM 69.1 °F - 68.0 °F 96% 29.91 in 10.0 mi Calm Calm - N/A   Clear
6:53 AM 69.1 °F - 68.0 °F 96% 29.94 in 8.0 mi Variable 5.8 mph - N/A   Clear
7:53 AM 71.1 °F - 68.0 °F 90% 29.96 in 10.0 mi NW 5.8 mph - N/A   Clear
8:53 AM 73.0 °F - 69.1 °F 87% 29.98 in 10.0 mi NW 9.2 mph - N/A   Clear
9:16 AM 73.4 °F - 68.0 °F 83% 30.02 in 10.0 mi WNW 11.5 mph - N/A   Mostly Cloudy
9:53 AM 75.9 °F - 69.1 °F 79% 29.99 in 10.0 mi WNW 10.4 mph - N/A   Mostly Cloudy
10:53 AM 80.1 °F 82.7 °F 68.0 °F 67% 29.99 in 10.0 mi WNW 11.5 mph - N/A   Mostly Cloudy
11:09 AM 80.6 °F 83.2 °F 68.0 °F 65% 30.03 in 10.0 mi NW 10.4 mph - N/A   Scattered Clouds
11:53 AM 82.0 °F 84.5 °F 66.9 °F 60% 29.99 in 10.0 mi Variable 5.8 mph - N/A   Mostly Cloudy
12:53 PM 84.0 °F 86.5 °F 66.9 °F 56% 29.99 in 10.0 mi NNW 11.5 mph - N/A   Mostly Cloudy
1:53 PM 82.9 °F 86.5 °F 69.1 °F 63% 29.98 in 10.0 mi North 12.7 mph - N/A   Overcast
2:53 PM 84.0 °F 87.8 °F 69.1 °F 61% 29.98 in 10.0 mi NNE 10.4 mph 17.3 mph N/A   Mostly Cloudy
3:53 PM 87.1 °F 89.9 °F 66.9 °F 51% 29.97 in 10.0 mi North 8.1 mph - N/A   Partly Cloudy
4:53 PM 84.9 °F 87.1 °F 66.0 °F 53% 29.96 in 10.0 mi NNE 9.2 mph - N/A   Partly Cloudy
5:53 PM 86.0 °F 87.6 °F 64.9 °F 49% 29.96 in 10.0 mi NE 10.4 mph - N/A   Clear
6:53 PM 84.0 °F 84.9 °F 63.0 °F 49% 29.95 in 10.0 mi NE 6.9 mph - N/A   Clear
7:53 PM 81.0 °F 81.7 °F 61.0 °F 50% 29.96 in 10.0 mi NE 5.8 mph - N/A   Clear
8:53 PM 75.9 °F - 60.1 °F 58% 29.98 in 10.0 mi NE 3.5 mph - N/A   Clear
9:53 PM 73.9 °F - 62.1 °F 66% 29.99 in 10.0 mi ENE 3.5 mph - N/A   Clear
10:53 PM 71.1 °F - 62.1 °F 73% 30.00 in 10.0 mi Calm Calm - N/A   Clear
11:53 PM 68.0 °F - 62.1 °F 81% 30.02 in 10.0 mi Calm Calm - N/A   Clear